Hilo, HI

5:50 AM HST on April 19, 2018 (GMT -1000)
Hilo International

Weather History for PHTO - June, 2013

Change the Weather History Date:

Thursday, June 6, 2013

  Actual Average Record
Temperature  
Mean Temperature 75 °F 75 °F  
Max Temperature 81 °F 82 °F 88 °F (1968)
Min Temperature 68 °F 68 °F 64 °F (1998)
Degree Days  
Heating Degree Days 0 0  
Month to date heating degree days 0 0  
Since 1 June heating degree days 0 0  
Since 1 July heating degree days 0 0  
Cooling Degree Days 10 10  
Month to date cooling degree days 63 60  
Year to date cooling degree days 1216 1128  
Since 1 June cooling degree days 63 60  
Growing Degree Days 24 (Base 50)    
Moisture  
Dew Point 65 °F    
Average Humidity 75    
Maximum Humidity 90    
Minimum Humidity 60    
Precipitation  
Precipitation 0.04 in 0.22 in 0.99 in (2016)
Month to date precipitation 0.20 1.26  
Year to date precipitation 47.24 53.17  
Snow  
Snow 0.00 in - - ()
Month to date snowfall 0.0  
Since 1 June snowfall 0.0  
Since 1 July snowfall 0.0  
Snow Depth 0.00 in    
Sea Level Pressure  
Sea Level Pressure 30.03 in    
Wind  
Wind Speed 7 mph (WSW)    
Max Wind Speed 18 mph    
Max Gust Speed 22 mph    
Visibility 10 miles    
Events Rain    
T = Trace of Precipitation, MM = Missing Value Source: NWS Daily Summary

Daily Weather History Graph

Daily Weather History Graph

Search for Another Location

Airport or City:

Astronomy

Jun. 06, 2013 Rise Set
Actual Time 5:40 AM HST 6:57 PM HST
Civil Twilight 5:16 AM HST 7:21 PM HST
Nautical Twilight 4:47 AM HST 7:50 PM HST
Astronomical Twilight 4:17 AM HST 8:20 PM HST
Moon 4:17 AM HST (6/6) 5:37 PM HST (6/6)
Length of Visible Light 14h 05m
Length of Day
13h 17m
Waning Crescent, 3% of the Moon is Illuminated
Jun 6
Waning Crescent
Jun 8
New
Jun 16
First Quarter
Jun 23
Full
Jun 29
Last Quarter

Hourly Weather History & Observations

Time (HST) Temp. Dew Point Humidity Pressure Visibility Wind Dir Wind Speed Gust Speed Precip Events Conditions
12:53 AM 73.0 °F 64.9 °F 76% 30.04 in 10.0 mi WSW 3.5 mph - N/A   Overcast
1:53 AM 71.1 °F 64.0 °F 78% 30.02 in 10.0 mi SW 3.5 mph - N/A   Mostly Cloudy
2:53 AM 69.1 °F 63.0 °F 81% 30.02 in 10.0 mi Calm Calm - N/A   Mostly Cloudy
3:53 AM 69.1 °F 62.1 °F 78% 30.01 in 10.0 mi WSW 6.9 mph - N/A   Partly Cloudy
4:53 AM 70.0 °F 66.0 °F 87% 30.03 in 9.0 mi East 10.4 mph - 0.00 in Rain Light Rain
5:53 AM 68.0 °F 64.9 °F 90% 30.04 in 8.0 mi West 10.4 mph - 0.02 in Rain Light Rain
6:53 AM 69.1 °F 66.0 °F 90% 30.06 in 10.0 mi West 8.1 mph - 0.00 in   Overcast
7:53 AM 73.9 °F 64.9 °F 73% 30.07 in 10.0 mi WSW 6.9 mph - N/A   Mostly Cloudy
8:07 AM 75.0 °F 63.0 °F 66% 30.07 in 10.0 mi West 3.5 mph - N/A   Mostly Cloudy
8:53 AM 77.0 °F 64.9 °F 66% 30.08 in 10.0 mi Calm Calm - 0.00 in   Mostly Cloudy
9:00 AM 77.0 °F 66.0 °F 69% 30.08 in 10.0 mi Variable 3.5 mph - N/A   Mostly Cloudy
9:53 AM 77.0 °F 62.1 °F 60% 30.07 in 10.0 mi NE 6.9 mph - N/A   Mostly Cloudy
10:53 AM 75.9 °F 63.0 °F 64% 30.07 in 10.0 mi ENE 18.4 mph - N/A   Overcast
11:53 AM 73.9 °F 64.9 °F 73% 30.06 in 6.0 mi NNW 4.6 mph 19.6 mph 0.00 in Rain Light Rain
12:53 PM 75.9 °F 64.9 °F 69% 30.04 in 8.0 mi East 13.8 mph - 0.00 in Rain Light Rain
1:53 PM 77.0 °F 64.0 °F 64% 30.01 in 10.0 mi Variable 4.6 mph - 0.00 in   Mostly Cloudy
2:53 PM 79.0 °F 64.0 °F 60% 29.99 in 10.0 mi NNW 8.1 mph - N/A   Mostly Cloudy
3:23 PM 79.0 °F 64.0 °F 60% 29.99 in 10.0 mi Variable 3.5 mph - N/A   Overcast
3:50 PM 73.4 °F 66.2 °F 78% 29.99 in 7.0 mi Calm Calm - 0.01 in Rain Light Rain
3:53 PM 73.0 °F 66.0 °F 79% 29.98 in 7.0 mi SE 4.6 mph - 0.02 in Rain Light Rain
4:53 PM 73.0 °F 66.0 °F 79% 29.98 in 10.0 mi WSW 6.9 mph - 0.00 in   Overcast
5:53 PM 72.0 °F 66.0 °F 81% 29.99 in 10.0 mi WSW 5.8 mph - 0.00 in   Overcast
6:53 PM 72.0 °F 66.0 °F 81% 30.01 in 10.0 mi WNW 5.8 mph - 0.00 in Rain Light Rain
7:53 PM 71.1 °F 66.0 °F 84% 30.02 in 10.0 mi WSW 4.6 mph - 0.00 in   Overcast
8:53 PM 71.1 °F 66.0 °F 84% 30.04 in 10.0 mi WSW 5.8 mph - N/A   Overcast
9:53 PM 69.1 °F 66.0 °F 90% 30.06 in 10.0 mi SW 3.5 mph - 0.04 in   Mostly Cloudy
10:53 PM 70.0 °F 66.0 °F 87% 30.07 in 10.0 mi SW 3.5 mph - N/A   Overcast
11:53 PM 70.0 °F 66.0 °F 87% 30.06 in 10.0 mi WSW 4.6 mph - N/A   Overcast